| time (UTC) | temp F | wind direction | speed MPH | gust MPH | rain 1hr in | rain 24hr in | rain mn in | humidity % | barometer mb |
| 20260506170056 | 64 | 279 | 0.0 | 2.0 | 0.00 | 0.00 | 0.00 | 75 | 1020.7 |
| 20260506164549 | 63 | 248 | 0.0 | 3.0 | 0.00 | 0.00 | 0.00 | 77 | 1020.7 |
| 20260506163046 | 62 | 147 | 0.0 | 3.0 | 0.00 | 0.00 | 0.00 | 79 | 1020.8 |
| 20260506161544 | 61 | 22 | 1.0 | 2.0 | 0.00 | 0.00 | 0.00 | 78 | 1020.7 |
| 20260506160045 | 60 | 181 | 0.0 | 2.0 | 0.00 | 0.00 | 0.00 | 83 | 1020.6 |
| 20260506154534 | 58 | 304 | 0.0 | 2.0 | 0.00 | 0.00 | 0.00 | 85 | 1020.7 |
| 20260506153031 | 57 | 238 | 0.0 | 0.0 | 0.00 | 0.00 | 0.00 | 87 | 1020.6 |
| 20260506151530 | 57 | 215 | 0.0 | 0.0 | 0.00 | 0.00 | 0.00 | 88 | 1020.5 |
| 20260506150028 | 56 | 210 | 0.0 | 0.0 | 0.00 | 0.00 | 0.00 | 90 | 1020.6 |
| 20260506144522 | 55 | 210 | 0.0 | 0.0 | 0.00 | 0.00 | 0.00 | 91 | 1020.6 |
| 20260506143021 | 55 | 210 | 0.0 | 0.0 | 0.00 | 0.00 | 0.00 | 92 | 1020.5 |
| 20260506141518 | 54 | 210 | 0.0 | 0.0 | 0.00 | 0.00 | 0.00 | 93 | 1020.4 |
| 20260506140021 | 54 | 210 | 0.0 | 0.0 | 0.00 | 0.00 | 0.00 | 93 | 1020.2 |
| 20260506134515 | 53 | 210 | 0.0 | 0.0 | 0.00 | 0.00 | 0.00 | 93 | 1020.1 |
| 20260506133016 | 53 | 210 | 0.0 | 0.0 | 0.00 | 0.00 | 0.00 | 93 | 1020.1 |
| 20260506131516 | 53 | 210 | 0.0 | 0.0 | 0.00 | 0.00 | 0.00 | 93 | 1020.1 |
| 20260506130014 | 53 | 210 | 0.0 | 0.0 | 0.00 | 0.00 | 0.00 | 93 | 1019.9 |
| 20260506124509 | 53 | 210 | 0.0 | 0.0 | 0.00 | 0.00 | 0.00 | 92 | 1019.8 |
| 20260506123009 | 53 | 210 | 0.0 | 0.0 | 0.00 | 0.00 | 0.00 | 92 | 1019.8 |
| 20260506121507 | 53 | 210 | 0.0 | 0.0 | 0.00 | 0.00 | 0.00 | 92 | 1019.8 |
| 20260506120007 | 53 | 210 | 0.0 | 0.0 | 0.00 | 0.00 | 0.00 | 92 | 1019.6 |
| 20260506114522 | 53 | 210 | 0.0 | 0.0 | 0.00 | 0.00 | 0.00 | 92 | 1019.6 |
| 20260506113005 | 53 | 210 | 0.0 | 0.0 | 0.00 | 0.00 | 0.00 | 92 | 1019.5 |
| 20260506111503 | 53 | 210 | 0.0 | 0.0 | 0.00 | 0.00 | 0.00 | 92 | 1019.5 |
| 20260506110003 | 53 | 210 | 0.0 | 0.0 | 0.00 | 0.00 | 0.00 | 92 | 1019.3 |
| 20260506104608 | 53 | 210 | 0.0 | 0.0 | 0.00 | 0.01 | 0.00 | 92 | 1019.2 |
| 20260506103100 | 53 | 210 | 0.0 | 0.0 | 0.00 | 0.01 | 0.00 | 92 | 1019.2 |
| 20260506101559 | 54 | 210 | 0.0 | 0.0 | 0.00 | 0.01 | 0.00 | 92 | 1019.1 |
| 20260506100114 | 54 | 210 | 0.0 | 1.0 | 0.00 | 0.01 | 0.00 | 92 | 1019.0 |
| 20260506094556 | 54 | 210 | 0.0 | 1.0 | 0.00 | 0.01 | 0.00 | 92 | 1019.0 |
| 20260506093059 | 54 | 210 | 0.0 | 1.0 | 0.00 | 0.01 | 0.00 | 92 | 1019.0 |
| 20260506091557 | 54 | 210 | 0.0 | 1.0 | 0.00 | 0.01 | 0.00 | 92 | 1019.1 |
| 20260506090055 | 54 | 210 | 0.0 | 1.0 | 0.00 | 0.01 | 0.00 | 92 | 1019.2 |
| 20260506084602 | 54 | 210 | 0.0 | 0.0 | 0.00 | 0.01 | 0.00 | 91 | 1019.1 |
| 20260506083054 | 54 | 210 | 0.0 | 0.0 | 0.00 | 0.01 | 0.00 | 91 | 1019.1 |
| 20260506081552 | 54 | 210 | 0.0 | 0.0 | 0.00 | 0.01 | 0.00 | 91 | 1019.1 |
| 20260506073049 | 54 | 210 | 0.0 | 0.0 | 0.00 | 0.05 | 0.00 | 91 | 1018.8 |
| 20260506071555 | 54 | 210 | 0.0 | 0.0 | 0.00 | 0.05 | 0.00 | 91 | 1018.8 |
| 20260506061541 | 54 | 218 | 0.0 | 0.0 | 0.00 | 0.19 | 0.05 | 91 | 1018.3 |
| 20260506044634 | 54 | 214 | 0.0 | 1.0 | 0.00 | 0.23 | 0.05 | 89 | 1017.8 |
| 20260506043032 | 54 | 223 | 0.0 | 1.0 | 0.00 | 0.23 | 0.05 | 89 | 1017.6 |
| 20260506041530 | 55 | 255 | 0.0 | 1.0 | 0.00 | 0.23 | 0.05 | 89 | 1017.4 |
| 20260506040028 | 55 | 255 | 0.0 | 2.0 | 0.00 | 0.23 | 0.05 | 89 | 1017.3 |
| 20260506034527 | 55 | 201 | 0.0 | 0.0 | 0.00 | 0.28 | 0.05 | 88 | 1017.1 |
| 20260506033033 | 55 | 124 | 0.0 | 2.0 | 0.00 | 0.28 | 0.05 | 87 | 1017.0 |
| 20260506031531 | 56 | 108 | 0.0 | 1.0 | 0.00 | 0.28 | 0.05 | 86 | 1016.5 |
| 20260506030042 | 56 | 199 | 0.0 | 1.0 | 0.00 | 0.28 | 0.05 | 85 | 1016.3 |
| 20260506024526 | 57 | 196 | 0.0 | 0.0 | 0.00 | 0.36 | 0.05 | 84 | 1016.4 |
| 20260506023019 | 57 | 114 | 0.0 | 3.0 | 0.00 | 0.36 | 0.05 | 83 | 1016.2 |
| 20260506021519 | 58 | 214 | 0.0 | 3.0 | 0.00 | 0.36 | 0.05 | 81 | 1016.2 |
| 20260506020016 | 59 | 207 | 0.0 | 3.0 | 0.00 | 0.36 | 0.05 | 79 | 1015.9 |
| 20260506014515 | 59 | 145 | 0.0 | 6.0 | 0.00 | 0.45 | 0.05 | 77 | 1015.8 |
| 20260506013015 | 59 | 118 | 0.0 | 3.0 | 0.00 | 0.45 | 0.05 | 76 | 1015.8 |
| 20260506011522 | 60 | 229 | 0.0 | 4.0 | 0.00 | 0.45 | 0.05 | 76 | 1015.6 |
| 20260506010014 | 61 | 177 | 1.0 | 5.0 | 0.00 | 0.45 | 0.05 | 75 | 1015.6 |
| 20260506004524 | 61 | 276 | 3.0 | 8.0 | 0.00 | 0.53 | 0.05 | 74 | 1015.6 |
| 20260506003013 | 63 | 304 | 1.0 | 5.0 | 0.00 | 0.53 | 0.05 | 72 | 1015.4 |
| 20260506001513 | 63 | 257 | 1.0 | 6.0 | 0.00 | 0.53 | 0.05 | 72 | 1015.4 |
| 20260506000017 | 63 | 312 | 0.0 | 3.0 | 0.00 | 0.53 | 0.05 | 73 | 1015.2 |
| 20260505234511 | 63 | 292 | 1.0 | 4.0 | 0.00 | 0.59 | 0.05 | 74 | 1015.3 |
| 20260505233010 | 62 | 96 | 2.0 | 5.0 | 0.00 | 0.59 | 0.05 | 73 | 1015.2 |
| 20260505231511 | 62 | 4 | 1.0 | 4.0 | 0.00 | 0.59 | 0.05 | 74 | 1015.3 |
| 20260505230012 | 62 | 253 | 0.0 | 6.0 | 0.00 | 0.59 | 0.05 | 74 | 1015.2 |
| 20260505224508 | 63 | 202 | 1.0 | 7.0 | 0.00 | 0.60 | 0.05 | 73 | 1015.2 |
| 20260505223008 | 64 | 15 | 0.0 | 4.0 | 0.00 | 0.60 | 0.05 | 74 | 1015.2 |
| 20260505221506 | 64 | 305 | 0.0 | 3.0 | 0.00 | 0.60 | 0.05 | 73 | 1015.3 |
| 20260505220008 | 64 | 128 | 1.0 | 4.0 | 0.00 | 0.60 | 0.05 | 72 | 1015.3 |
| 20260505214505 | 64 | 262 | 0.0 | 3.0 | 0.00 | 0.60 | 0.05 | 72 | 1015.4 |
| 20260505213006 | 64 | 302 | 0.0 | 4.0 | 0.00 | 0.60 | 0.05 | 72 | 1015.5 |
| 20260505211503 | 63 | 88 | 0.0 | 5.0 | 0.00 | 0.60 | 0.05 | 73 | 1015.6 |
| 20260505210003 | 64 | 127 | 0.0 | 4.0 | 0.00 | 0.60 | 0.05 | 73 | 1015.7 |
| 20260505204502 | 64 | 188 | 0.0 | 4.0 | 0.00 | 0.60 | 0.05 | 73 | 1015.6 |
| 20260505203059 | 64 | 97 | 0.0 | 2.0 | 0.00 | 0.60 | 0.05 | 75 | 1015.6 |
| 20260505201558 | 63 | 126 | 0.0 | 3.0 | 0.00 | 0.60 | 0.05 | 74 | 1015.7 |
| 20260505200058 | 63 | 270 | 0.0 | 3.0 | 0.00 | 0.60 | 0.05 | 76 | 1015.8 |
| 20260505194600 | 63 | 280 | 1.0 | 4.0 | 0.00 | 0.60 | 0.05 | 75 | 1015.8 |
| 20260505193124 | 62 | 21 | 0.0 | 3.0 | 0.00 | 0.60 | 0.05 | 74 | 1015.9 |
| 20260505191604 | 63 | 226 | 0.0 | 5.0 | 0.00 | 0.60 | 0.05 | 75 | 1015.9 |
| 20260505190054 | 64 | 14 | 1.0 | 4.0 | 0.00 | 0.60 | 0.05 | 73 | 1015.8 |
| 20260505184555 | 62 | 299 | 1.0 | 4.0 | 0.00 | 0.60 | 0.05 | 75 | 1015.8 |
| 20260505183051 | 62 | 83 | 0.0 | 3.0 | 0.00 | 0.60 | 0.05 | 76 | 1015.8 |
| 20260505181547 | 61 | 281 | 0.0 | 4.0 | 0.00 | 0.60 | 0.05 | 77 | 1015.8 |
| 20260505180045 | 60 | 280 | 0.0 | 2.0 | 0.00 | 0.60 | 0.05 | 76 | 1015.7 |
| 20260505174541 | 60 | 245 | 0.0 | 2.0 | 0.00 | 0.60 | 0.05 | 79 | 1015.7 |
| 20260505173037 | 59 | 265 | 0.0 | 1.0 | 0.00 | 0.60 | 0.05 | 81 | 1015.5 |
| 20260505171545 | 59 | 55 | 0.0 | 3.0 | 0.00 | 0.60 | 0.05 | 84 | 1015.4 |